sat.trackr.live / text

‹ back to catalog

STARLINK-2753

NORAD 48696 · 2021-044BL

PAYLOAD ACTIVE UNKNOWN

§ Identity

Operator
Country
US
Launch date
2021-05-26
Launch site
AFETR
Launch vehicle
Mass (kg)
RCS (m²)

Purposes: comms

External: N2YO · Heavens-Above · Gunter

§ Orbital elements

Epoch: 2026-05-25T02:31:00.781824Z

Period
94.01 min
Inclination
53.1589°
Eccentricity
0.0001445
Mean motion
15.31693183 rev/d
Perigee alt
469.8 km
Apogee alt
471.7 km
Semi-major
6,848.9 km
B*
1.3184e-5
RAAN
93.1809°
Arg perigee
92.7733°
Mean anomaly
267.3434°
Rev number
27,588

§ Raw data

STARLINK-27531 48696U 21044BL  26145.10487016  .00000044  00000+0  13184-4 0  99972 48696  53.1589  93.1809 0001445  92.7733 267.3434 15.31693183275880

JSON: /api/v1/satellites/48696 · /tle

For live sub-satellite position, see the globe view (requires WebGL).

§ Visibility from observer

Set your observer location to see the next 7 days of passes ≥ 10°. The values pass through the URL so the page stays shareable.

No JS? Fill the form by hand. The geolocation button needs JavaScript.